Location: Kumla
(59.1265°N, 15.1401°E)
Time: 17:30:14
(UTC+01:00)

A-11 Canister half - Pass Details

Date: 08 December 2023
Orbit: 1526 x 1682 km, 47.3° (Epoch: 25 February)

Event Time Altitude Azimuth Distance (km) Brightness Sun altitude
Rises 20:05:37 0° 242° (WSW) 4,931 12.2 -36.4°
Reaches altitude 10° 20:09:01 10° 235° (SW) 3,944 11.5 -36.8°
Enters shadow 20:16:12 38° 195° (SSW) 2,378 9.8 -37.7°
Maximum altitude 20:18:11 41° 171° (S) 2,266 - -37.9°
Drops below altitude 10° 20:27:14 10° 106° (ESE) 3,888 - -39.0°
Sets 20:30:33 0° 99° (E) 4,855 - -39.4°
